Home > Weather > Langfang > Past weeks

Flag for China Weather for the Past 2 Weeks in Langfang, Hebei, China

Now
21 °F

Clear.


Feels Like: 16 °F
Forecast: 24 / 51 °F
Wind: 3 mph from Northwest

Location: Beijing Airport

Current Time: Feb 10, 2016 at 6:01:03 AM

Latest Report: Feb 10, 2016 at 5:00 AM


Visibility: 10 mi

Pressure: 30.09 "Hg

Humidity: 63%

Dew point: 10 °F

Location of LangfangLocation

Historic Weather in Langfang — Graph

°F

Langfang Temperature Yesterday

Maximum temperature yesterday: 52 °F (at 2:30 PM)
Minimum temperature yesterday: 21 °F (at 5:30 AM)
Average temperature yesterday: 36 °F

High & Low Weather Summary for the Past Weeks

 TemperatureHumidityPressure
High54 °F (Feb 8, 1:00 PM)73% (Jan 29, 6:00 AM)30.69 "Hg (Jan 29, 6:00 AM)
Low5 °F (Jan 31, 7:30 AM)12% (Feb 2, 3:30 PM)29.89 "Hg (Feb 8, 4:30 AM)
Average29 °F35%30.38 "Hg
* Reported Jan 26 4:00 AM — Feb 10 4:30 AM, Langfang, Weather by CustomWeather, © 2016

Note: Actual official high and low records may vary slightly from our data, if they occured in-between our weather recording intervals... More about our weather records

Advertising

Langfang Weather History for the Previous 24 Hours

 ConditionsComfort  
Time TempWeatherWind HumidityBarometerVisibility
4:30 AM
Wed, Feb 10
21 °FClear.3 mph68%30.09 "Hg10 mi
4:00 AM21 °FClear.1 mph68%30.09 "Hg10 mi
3:30 AM23 °FClear.3 mph63%30.09 "Hg10 mi
3:00 AM21 °FClear.3 mph63%30.12 "Hg10 mi
2:30 AM23 °FClear.1 mph68%30.12 "Hg10 mi
2:00 AM23 °FClear.1 mph63%30.12 "Hg10 mi
1:30 AM25 °FClear.1 mph63%30.12 "Hg10 mi
1:00 AM25 °FClear.1 mph59%30.12 "Hg10 mi
12:30 AM25 °FClear.1 mph59%30.15 "Hg10 mi
12:00 AM25 °FClear.1 mph59%30.15 "Hg10 mi
11:30 PM
Tue, Feb 9
25 °FClear.1 mph50%30.15 "Hg10 mi
11:00 PM25 °FClear.3 mph50%30.15 "Hg10 mi
10:30 PM32 °FClear.1 mph37%30.15 "Hg10 mi
10:00 PM34 °FClear.3 mph35%30.12 "Hg10 mi
9:30 PM37 °FPassing clouds.3 mph28%30.12 "HgN/A
9:00 PM36 °FClear.3 mph30%30.12 "Hg10 mi
8:30 PM39 °FClear.6 mph28%30.12 "Hg10 mi
8:00 PM41 °FClear.6 mph26%30.12 "Hg10 mi
7:30 PM41 °FClear.6 mph28%30.12 "Hg10 mi
6:30 PM43 °FClear.3 mph24%30.12 "Hg10 mi
6:00 PM45 °FClear.3 mph25%30.12 "Hg10 mi
5:30 PM46 °FPassing clouds.6 mph23%30.09 "HgN/A
5:00 PM48 °FPassing clouds.8 mph20%30.09 "HgN/A
4:00 PM52 °FPassing clouds.8 mph17%30.12 "HgN/A
3:30 PM52 °FPassing clouds.6 mph17%30.12 "HgN/A
3:00 PM52 °FPassing clouds.8 mph17%30.12 "HgN/A
2:30 PM52 °FPassing clouds.8 mph19%30.15 "HgN/A
2:00 PM50 °FPassing clouds.6 mph19%30.15 "HgN/A
1:30 PM50 °FPassing clouds.6 mph20%30.18 "HgN/A
1:00 PM48 °FPassing clouds.3 mph21%30.18 "HgN/A
12:30 PM48 °FPassing clouds.3 mph21%30.21 "HgN/A
11:30 AM46 °FSunny.1 mph23%30.24 "Hg10 mi
11:00 AM41 °FPassing clouds.3 mph28%30.24 "HgN/A
10:30 AM39 °FSunny.1 mph30%30.24 "Hg10 mi
10:00 AM39 °FPassing clouds.3 mph30%30.24 "HgN/A
9:30 AM37 °FPassing clouds.3 mph33%30.24 "HgN/A
9:00 AM36 °FSunny.1 mph35%30.24 "Hg10 mi
8:30 AM30 °FSunny.1 mph55%30.24 "Hg10 mi
8:00 AM23 °FSunny.3 mph63%30.21 "Hg10 mi
7:30 AM23 °FSunny.1 mph63%30.21 "Hg10 mi
7:00 AM23 °FClear.1 mph63%30.21 "Hg10 mi
6:00 AM23 °FClear.3 mph58%30.18 "Hg10 mi
Weather by CustomWeather, © 2016

See weather overviewHow to use our weather pages